Regional Weather Roundup
Issued by NWS State College, PA

Home | Current Version | Previous Version | Graphics & Text | Print | Product List | Glossary On
Versions: 1 2 3 4 5 6 7 8 9 10 11 12 13 14 15 16 17 18 19 20 21 22 23 24 25 26 27 28 29 30 31 32 33 34 35 36 37 38 39 40 41 42 43 44 45 46 47 48 49 50
000
ASUS41 KCTP 041810
RWRCTP

REGIONAL WEATHER ROUNDUP
NATIONAL WEATHER SERVICE STATE COLLEGE PA
200 PM EDT WED MAY 04 2016

Note: "fair" indicates few or no clouds below 12,000 feet with no
significant weather and/or obstructions to visibility.

* = STATION THAT DOES NOT REPORT PRECIPITATION /E.G. RAIN...SNOW...ETC/
    THUNDER OR FOG.

PAZ002>004-007>009-013>016-020>023-029>032-041900-
WESTERN PENNSYLVANIA

CITY           SKY/WX    TMP DP  RH WIND       PRES   REMARKS
ERIE           MOSUNNY   59  41  51 NE12      29.66F
MEADVILLE      CLOUDY    60  34  37 W7        29.65F
FRANKLIN*      CLOUDY    61  34  36 W3        29.67F
NEW CASTLE     CLOUDY    58  41  53 CALM      29.66
BEAVER COUNTY  CLOUDY    57  43  58 E6        29.66F
BUTLER*        CLOUDY    57  37  47 SW3       29.69S
PITTSBURGH INT CLOUDY    60  42  51 CALM      29.64F
PITTSBURGH     PTSUNNY   61  42  49 MISG      29.64F
INDIANA*       PTSUNNY   55  48  76 S5        29.71F
LATROBE        PTSUNNY   55  50  82 CALM      29.69F
WASHINGTON CO* PTSUNNY   61  43  51 E6        29.65F
$$

PAZ004>006-010>012-017>019-024>028-033>037-041-042-045-046-049>053-041900-
CENTRAL PENNSYLVANIA

CITY           SKY/WX    TMP DP  RH WIND       PRES   REMARKS
BRADFORD       CLOUDY    56  34  43 VRB5      29.67F
DUBOIS         CLOUDY    55  43  63 SE10      29.66F
CLEARFIELD     PTSUNNY   59  44  57 VRB6      29.68F
JOHNSTOWN      CLOUDY    50  43  77 CALM      29.67F
ALTOONA        LGT RAIN  53  47  79 E8G17     29.67F
STATE COLLEGE  PTSUNNY   55  48  76 CALM      29.68F
WILLIAMSPORT   CLOUDY    57  49  74 E5        29.70S
SELINSGROVE    CLOUDY    56  50  80 S5        29.71F
FT INDIANTOWN  CLOUDY    54  54 100 NE7       29.71F
CAPITAL CITY   CLOUDY    56  49  77 NE5       29.71S
HARRISBURG     CLOUDY    56  49  77 NE6       29.70F
YORK           CLOUDY    55  51  86 E7        29.69F
$$

PAZ038>040-043-044-047-048-054-055-060>062-067>071-041900-
EASTERN PENNSYLVANIA

CITY           SKY/WX    TMP DP  RH WIND       PRES   REMARKS
SCRANTON       CLOUDY    51  49  92 NE6       29.72F
MOUNT POCONO   CLOUDY    45  43  93 E6        29.72F FOG
ALLENTOWN      CLOUDY    54  48  82 E10       29.73F HAZE
QUAKERTOWN*    CLOUDY    50  50 100 E6        29.74F
READING        CLOUDY    52  49  89 NE7       29.71F FOG
LANCASTER      CLOUDY    53  50  89 NE8       29.71F
COATESVILLE    HVY RAIN  52  52 100 NE5       29.72F
POTTSTOWN      CLOUDY    51  50  96 NE8       29.73F FOG
BLUE BELL      CLOUDY    50  50 100 NE7       29.71F
DOYLESTOWN     LGT RAIN  50  49  96 MISG      29.72F FOG
WILLOW GROVE   NOT AVBL
NORTH PHILA    CLOUDY    52  48  86 NE10      29.73F FOG
PHILADELPHIA   CLOUDY    53  47  79 NE10      29.71F
$$




USA.gov is the U.S. government's official web portal to all federal, state and local government web resources and services.